LiveATC.Net - Listen to live air traffic control over the Internet!


ICAO: RJOO  IATA: ITM   Airport: Osaka International Airport
City: Osaka
Country: Japan   Continent: Asia
RJOO METAR Weather: RJOO 251800Z AUTO 06005KT 030V090 9999 NCD 20/15 Q1009 RMK A2980
RJOO Flight Activity (FlightAware)
RJOO Webcam:  (Airport Webcams) 

RJOO Tower
Feed Status: UP   Listeners: 3
Listen in your browser - HTML5 player (in browser, HTML5)
Click here to listen with your own player (launches your MP3 player)
Archive Access: RJOO Tower
FacilityFrequency
Osaka Tower118.100

NOTICE

Unauthorized use prohibited. See LiveATC.net Terms of Service


Airport/ARTCC Code
Frequency Search
(e.g., 124.400, 128.75)
Site-wide search
 


Browse Feeds
Top 50 Feeds
HF Oceanic Feeds
Coverage Map
Bad Weather Areas

LiveATC FAQ
Offer LiveATC feed
Contact LiveATC.net
Press Inquiries

LiveATC on iPhone
LiveATC on Android

LiveATC Mobile
(Mobile browser)

ATC Audio Archives
Interesting Recordings

LiveATC Forums


Home Page
About LiveATC.net


Terms of Use
Privacy Policy

AIRMETs/SIGMETs

FAA Airport Status
NAS Status
Arrival Demand


Server Software By:
Icecast.org
Liquidsoap